TimeCST,TemperatureF,Dew PointF,Humidity,Sea Level PressureIn,VisibilityMPH,Wind Direction,Wind SpeedMPH,Gust SpeedMPH,PrecipitationIn,Events,Conditions,WindDirDegrees,DateUTC
12:00 AM,48.2,39.2,71,29.92,10.0,South,6.9,-,N/A,,Overcast,180,2013-02-07 06:00:00
12:08 AM,48.2,39.2,71,29.92,10.0,South,10.4,-,N/A,,Overcast,170,2013-02-07 06:08:00
12:53 AM,48.0,39.9,74,29.92,8.0,South,6.9,-,0.00,Rain,Light Rain,180,2013-02-07 06:53:00
1:08 AM,46.4,42.8,87,29.91,10.0,SSE,6.9,-,0.01,,Overcast,160,2013-02-07 07:08:00
1:53 AM,46.0,39.9,79,29.88,10.0,SSE,9.2,-,0.01,,Mostly Cloudy,150,2013-02-07 07:53:00
2:15 AM,44.6,39.2,81,29.88,10.0,SSE,9.2,-,N/A,,Scattered Clouds,150,2013-02-07 08:15:00
2:30 AM,44.6,39.2,81,29.88,10.0,South,5.8,-,N/A,,Mostly Cloudy,170,2013-02-07 08:30:00
2:53 AM,46.0,39.9,79,29.88,10.0,South,5.8,-,N/A,,Overcast,170,2013-02-07 08:53:00
3:53 AM,46.0,41.0,83,29.87,6.0,SSW,6.9,-,0.03,Rain,Light Rain,200,2013-02-07 09:53:00
4:11 AM,44.6,42.8,93,29.87,5.0,South,5.8,-,0.04,Rain,Light Rain,180,2013-02-07 10:11:00
4:53 AM,44.1,44.1,100,29.87,2.5,Calm,Calm,-,0.19,Rain,Rain,0,2013-02-07 10:53:00
5:18 AM,44.6,44.6,100,29.86,4.0,South,4.6,-,0.08,Rain,Light Rain,180,2013-02-07 11:18:00
5:32 AM,44.6,44.6,100,29.87,2.0,SSW,4.6,-,0.14,Rain,Rain,200,2013-02-07 11:32:00
5:53 AM,45.0,45.0,100,29.86,2.5,South,4.6,-,0.25,Rain,Rain,180,2013-02-07 11:53:00
6:15 AM,46.4,46.4,100,29.86,1.8,South,5.8,-,0.11,Rain,Rain,190,2013-02-07 12:15:00
6:20 AM,46.4,46.4,100,29.86,2.0,SSW,5.8,-,0.13,Rain,Rain,200,2013-02-07 12:20:00
6:36 AM,46.4,46.4,100,29.86,4.0,South,6.9,-,0.16,Rain,Light Rain,180,2013-02-07 12:36:00
6:53 AM,46.0,46.0,100,29.86,3.0,South,4.6,-,0.20,Rain,Light Rain,190,2013-02-07 12:53:00
6:56 AM,46.4,46.4,100,29.86,3.0,South,4.6,-,0.00,Rain,Light Rain,190,2013-02-07 12:56:00
7:03 AM,46.4,46.4,100,29.86,3.0,South,3.5,-,0.01,Rain,Light Rain,190,2013-02-07 13:03:00
7:12 AM,46.4,46.4,100,29.86,3.0,Calm,Calm,-,0.02,Rain,Light Rain,0,2013-02-07 13:12:00
7:53 AM,46.0,46.0,100,29.88,2.5,Calm,Calm,-,0.04,Rain,Light Rain,0,2013-02-07 13:53:00
8:21 AM,46.4,46.4,100,29.90,1.2,WSW,3.5,-,0.06,Rain,Light Rain,250,2013-02-07 14:21:00
8:43 AM,46.4,46.4,100,29.91,1.8,West,5.8,-,0.09,Rain,Light Rain,270,2013-02-07 14:43:00
8:50 AM,46.4,46.4,100,29.91,2.0,West,3.5,-,0.09,Rain,Light Rain,280,2013-02-07 14:50:00
8:53 AM,46.9,46.9,100,29.91,2.0,West,3.5,-,0.09,Rain,Light Rain,280,2013-02-07 14:53:00
9:53 AM,48.0,48.0,100,29.91,2.5,NW,5.8,-,0.02,Rain,Light Rain,310,2013-02-07 15:53:00
10:00 AM,48.2,46.4,93,29.91,5.0,NW,8.1,-,0.01,Rain,Light Rain,320,2013-02-07 16:00:00
10:39 AM,46.4,44.6,93,29.93,2.5,NW,9.2,-,0.03,Rain,Light Rain,310,2013-02-07 16:39:00
10:46 AM,44.6,44.6,100,29.92,2.5,NNW,9.2,-,0.03,Rain,Light Rain,330,2013-02-07 16:46:00
10:53 AM,45.0,44.1,97,29.93,2.5,NNW,11.5,-,0.03,Rain,Light Rain,330,2013-02-07 16:53:00
11:07 AM,44.6,42.8,93,29.93,3.0,NNW,9.2,-,0.01,Rain,Light Rain,340,2013-02-07 17:07:00
11:53 AM,43.0,42.1,97,29.96,4.0,NW,12.7,-,0.01,,Overcast,320,2013-02-07 17:53:00
12:53 PM,44.1,42.1,93,29.95,5.0,NNW,11.5,-,N/A,,Overcast,330,2013-02-07 18:53:00
1:28 PM,44.6,41.0,87,29.94,5.0,NNW,12.7,23.0,N/A,,Overcast,340,2013-02-07 19:28:00
1:53 PM,46.9,42.1,83,29.94,6.0,NNW,12.7,-,N/A,,Haze,340,2013-02-07 19:53:00
2:53 PM,45.0,39.9,82,29.97,7.0,North,15.0,21.9,N/A,,Overcast,350,2013-02-07 20:53:00
3:53 PM,45.0,39.0,80,29.98,6.0,NNW,12.7,23.0,N/A,,Haze,340,2013-02-07 21:53:00
4:38 PM,44.6,37.4,76,30.00,8.0,North,13.8,21.9,N/A,,Partly Cloudy,350,2013-02-07 22:38:00
4:53 PM,44.1,36.0,73,30.01,9.0,North,15.0,-,N/A,,Clear,350,2013-02-07 22:53:00
5:53 PM,42.1,34.0,73,30.05,8.0,North,13.8,18.4,N/A,,Clear,350,2013-02-07 23:53:00
6:53 PM,39.0,34.0,82,30.09,7.0,North,9.2,-,N/A,,Clear,360,2013-02-08 00:53:00
7:22 PM,37.4,33.8,87,30.08,6.0,North,18.4,26.5,N/A,,Haze,360,2013-02-08 01:22:00
7:30 PM,37.4,33.8,87,30.09,6.0,North,17.3,25.3,N/A,,Haze,350,2013-02-08 01:30:00
7:48 PM,37.4,32.0,81,30.10,6.0,North,15.0,-,N/A,,Haze,350,2013-02-08 01:48:00
7:53 PM,37.0,32.0,82,30.11,6.0,North,16.1,23.0,N/A,,Haze,360,2013-02-08 01:53:00
8:03 PM,35.6,32.0,87,30.10,6.0,North,11.5,25.3,N/A,,Overcast,350,2013-02-08 02:03:00
8:53 PM,35.1,30.9,85,30.14,6.0,North,13.8,-,N/A,,Overcast,350,2013-02-08 02:53:00
9:53 PM,34.0,28.9,82,30.16,7.0,North,15.0,20.7,N/A,,Overcast,360,2013-02-08 03:53:00
10:53 PM,32.0,27.0,82,30.19,7.0,North,17.3,24.2,N/A,,Overcast,10,2013-02-08 04:53:00